Location: Jarosław
(50.0191°N, 22.6835°E)
Time: 10:07:39
(UTC+02:00)

ISS - Pass Details

Date: 27 March 2019
Orbit: 408 x 410 km, 51.6° (Epoch: 25 April)

Event Time Altitude Azimuth Distance (km) Brightness Sun altitude
Rises 20:10:04 0° 274° (W) 2,337 1.1 -21.5°
Reaches altitude 10° 20:12:10 10° 278° (W) 1,475 -0.1 -21.8°
Enters shadow 20:14:59 54° 316° (NW) 503 -3.1 -22.1°
